Time,TemperatureF,DewpointF,PressureIn,WindDirection,WindDirectionDegrees,WindSpeedMPH,WindSpeedGustMPH,Humidity,HourlyPrecipIn,Conditions,Clouds,dailyrainin,SoftwareType,DateUTC
2013-01-12 00:00:00,41.6,39.4,30.08,NNE,19,0.0,0.0,92,0.00,RA,,0.00,WeatherDisplay:10.37,2013-01-12 05:00:00,
2013-01-12 00:04:00,41.6,39.4,30.08,NNE,19,0.7,1.1,92,0.00,RA,,0.00,WeatherDisplay:10.37,2013-01-12 05:04:00,
2013-01-12 00:09:00,41.6,39.4,30.08,NNE,19,0.0,0.0,92,0.00,RA,,0.00,WeatherDisplay:10.37,2013-01-12 05:09:00,
2013-01-12 00:14:00,41.6,39.4,30.09,NNE,19,0.0,0.0,92,0.00,CLR,,0.00,WeatherDisplay:10.37,2013-01-12 05:14:00,
2013-01-12 00:19:00,41.6,39.4,30.09,NNE,19,0.0,0.0,92,0.00,CLR,,0.00,WeatherDisplay:10.37,2013-01-12 05:19:00,
2013-01-12 00:24:00,41.6,39.4,30.08,NNE,19,1.0,1.1,92,0.00,CLR,,0.00,WeatherDisplay:10.37,2013-01-12 05:24:00,
2013-01-12 00:29:00,41.6,39.4,30.08,NNE,19,0.4,1.1,92,0.00,CLR,,0.00,WeatherDisplay:10.37,2013-01-12 05:29:00,
2013-01-12 00:34:00,41.5,39.3,30.08,NNE,19,0.0,0.0,92,0.00,CLR,,0.00,WeatherDisplay:10.37,2013-01-12 05:34:00,
2013-01-12 00:39:00,41.4,39.3,30.08,NNE,19,0.0,0.0,92,0.00,CLR,,0.00,WeatherDisplay:10.37,2013-01-12 05:39:00,
2013-01-12 00:44:00,41.4,39.0,30.08,NNE,19,0.0,1.0,92,0.00,,,0.45,weatherlink.com 1.10,2013-01-12 05:44:00,
2013-01-12 00:49:00,41.4,39.3,30.08,NNE,19,0.0,0.0,92,0.00,CLR,,0.00,WeatherDisplay:10.37,2013-01-12 05:49:00,
2013-01-12 00:54:00,41.3,39.2,30.08,NNE,19,0.0,0.0,92,0.00,CLR,,0.00,WeatherDisplay:10.37,2013-01-12 05:54:00,
2013-01-12 00:59:00,41.3,39.0,30.08,NNE,19,0.0,1.0,92,0.00,,,0.45,weatherlink.com 1.10,2013-01-12 05:59:00,
2013-01-12 01:04:00,41.3,39.2,30.08,NNE,19,0.0,0.0,92,0.00,CLR,,0.00,WeatherDisplay:10.37,2013-01-12 06:04:00,
2013-01-12 01:09:00,41.4,39.3,30.08,NNE,19,0.6,1.1,92,0.00,CLR,,0.00,WeatherDisplay:10.37,2013-01-12 06:09:00,
2013-01-12 01:14:00,41.5,39.1,30.08,NNE,19,0.0,1.1,91,0.00,CLR,,0.00,WeatherDisplay:10.37,2013-01-12 06:14:00,
2013-01-12 01:19:00,41.6,39.2,30.08,NNE,19,0.0,0.0,91,0.00,CLR,,0.00,WeatherDisplay:10.37,2013-01-12 06:19:00,
2013-01-12 01:24:00,41.6,39.2,30.09,NNE,19,1.3,2.3,91,0.00,CLR,,0.00,WeatherDisplay:10.37,2013-01-12 06:24:00,
2013-01-12 01:29:00,41.6,39.4,30.08,NNE,19,0.5,2.3,92,0.00,CLR,,0.00,WeatherDisplay:10.37,2013-01-12 06:29:00,
2013-01-12 01:34:00,41.6,39.4,30.08,NNE,19,0.0,0.0,92,0.00,CLR,,0.00,WeatherDisplay:10.37,2013-01-12 06:34:00,
2013-01-12 01:39:00,41.6,39.2,30.08,NNE,19,0.6,1.1,91,0.00,CLR,,0.00,WeatherDisplay:10.37,2013-01-12 06:39:00,
2013-01-12 01:44:00,41.6,39.2,30.09,NNE,19,0.1,0.0,91,0.00,CLR,,0.00,WeatherDisplay:10.37,2013-01-12 06:44:00,
2013-01-12 01:49:00,41.7,39.3,30.09,NNE,19,0.9,2.3,91,0.00,CLR,,0.00,WeatherDisplay:10.37,2013-01-12 06:49:00,
2013-01-12 01:54:00,41.7,39.3,30.09,NNE,19,0.0,0.0,91,0.00,CLR,,0.00,WeatherDisplay:10.37,2013-01-12 06:54:00,
2013-01-12 01:59:00,41.7,39.5,30.09,NNE,19,0.3,1.1,92,0.00,CLR,,0.00,WeatherDisplay:10.37,2013-01-12 06:59:00,
2013-01-12 02:04:00,41.6,39.2,30.10,NNE,19,1.5,2.3,91,0.00,CLR,,0.00,WeatherDisplay:10.37,2013-01-12 07:04:00,
2013-01-12 02:09:00,41.6,39.4,30.09,NNE,19,1.3,2.3,92,0.00,CLR,,0.00,WeatherDisplay:10.37,2013-01-12 07:09:00,
2013-01-12 02:14:00,41.6,39.4,30.09,NNE,19,1.4,3.5,92,0.00,CLR,,0.00,WeatherDisplay:10.37,2013-01-12 07:14:00,
2013-01-12 02:19:00,41.5,39.3,30.09,North,9,1.6,3.5,92,0.00,CLR,,0.00,WeatherDisplay:10.37,2013-01-12 07:19:00,
2013-01-12 02:24:00,41.5,39.3,30.10,NNW,346,2.5,3.5,92,0.00,CLR,,0.00,WeatherDisplay:10.37,2013-01-12 07:24:00,
2013-01-12 02:29:00,41.4,39.3,30.10,North,351,1.2,2.3,92,0.00,CLR,,0.00,WeatherDisplay:10.37,2013-01-12 07:29:00,
2013-01-12 02:34:00,41.4,39.3,30.10,North,351,0.9,2.3,92,0.00,CLR,,0.00,WeatherDisplay:10.37,2013-01-12 07:34:00,
2013-01-12 02:39:00,41.3,39.2,30.11,NNW,347,2.0,2.3,92,0.00,CLR,,0.00,WeatherDisplay:10.37,2013-01-12 07:39:00,
2013-01-12 02:44:00,41.2,39.1,30.10,NNW,339,2.6,3.5,92,0.00,CLR,,0.00,WeatherDisplay:10.37,2013-01-12 07:44:00,
2013-01-12 02:49:00,41.1,39.0,30.10,North,355,4.0,5.8,92,0.00,CLR,,0.00,WeatherDisplay:10.37,2013-01-12 07:49:00,
2013-01-12 02:54:00,40.9,38.8,30.10,North,5,2.2,3.5,92,0.00,CLR,,0.00,WeatherDisplay:10.37,2013-01-12 07:54:00,
2013-01-12 02:59:00,40.8,38.7,30.10,North,10,1.4,3.5,92,0.00,CLR,,0.00,WeatherDisplay:10.37,2013-01-12 07:59:00,
2013-01-12 03:04:00,40.7,38.6,30.10,NNW,344,2.4,3.5,92,0.00,CLR,,0.00,WeatherDisplay:10.37,2013-01-12 08:04:00,
2013-01-12 03:09:00,40.6,38.5,30.11,NNW,336,2.5,3.5,92,0.00,CLR,,0.00,WeatherDisplay:10.37,2013-01-12 08:09:00,
2013-01-12 03:14:00,40.5,38.4,30.10,NNW,346,1.2,2.3,92,0.00,CLR,,0.00,WeatherDisplay:10.37,2013-01-12 08:14:00,
2013-01-12 03:19:00,40.4,38.3,30.09,NNE,16,1.7,3.5,92,0.00,CLR,,0.00,WeatherDisplay:10.37,2013-01-12 08:19:00,
2013-01-12 03:24:00,40.3,38.2,30.09,North,350,3.2,3.5,92,0.00,CLR,,0.00,WeatherDisplay:10.37,2013-01-12 08:24:00,
2013-01-12 03:29:00,40.3,38.2,30.09,North,355,2.2,3.5,92,0.00,CLR,,0.00,WeatherDisplay:10.37,2013-01-12 08:29:00,
2013-01-12 03:34:00,40.2,38.1,30.09,NNW,339,3.3,4.6,92,0.00,CLR,,0.00,WeatherDisplay:10.37,2013-01-12 08:34:00,
2013-01-12 03:39:00,40.1,38.0,30.09,NNW,331,3.4,3.5,92,0.00,CLR,,0.00,WeatherDisplay:10.37,2013-01-12 08:39:00,
2013-01-12 03:44:00,40.0,37.9,30.09,NNW,337,1.8,3.5,92,0.00,CLR,,0.00,WeatherDisplay:10.37,2013-01-12 08:44:00,
2013-01-12 03:49:00,40.0,37.9,30.09,NNW,329,1.7,2.3,92,0.00,CLR,,0.00,WeatherDisplay:10.37,2013-01-12 08:49:00,
2013-01-12 03:54:00,39.9,37.8,30.09,NNW,338,3.0,4.0,92,0.00,CLR,,0.00,WeatherDisplay:10.37,2013-01-12 08:54:00,
2013-01-12 03:59:00,39.8,37.7,30.09,NNW,338,2.7,3.5,92,0.00,CLR,,0.00,WeatherDisplay:10.37,2013-01-12 08:59:00,
2013-01-12 04:04:00,39.7,37.8,30.09,NW,325,3.0,3.5,93,0.00,CLR,,0.00,WeatherDisplay:10.37,2013-01-12 09:04:00,
2013-01-12 04:09:00,39.6,37.5,30.08,North,355,3.8,5.0,92,0.00,CLR,,0.00,WeatherDisplay:10.37,2013-01-12 09:09:00,
2013-01-12 04:14:00,39.5,37.6,30.09,North,351,2.5,3.5,93,0.00,CLR,,0.00,WeatherDisplay:10.37,2013-01-12 09:14:00,
2013-01-12 04:19:00,39.3,37.4,30.08,NE,47,3.2,4.6,93,0.00,CLR,,0.00,WeatherDisplay:10.37,2013-01-12 09:19:00,
2013-01-12 04:24:00,39.2,37.3,30.08,NNE,23,2.4,3.5,93,0.00,CLR,,0.00,WeatherDisplay:10.37,2013-01-12 09:24:00,
2013-01-12 04:29:00,39.0,37.1,30.08,North,355,1.5,3.5,93,0.00,CLR,,0.00,WeatherDisplay:10.37,2013-01-12 09:29:00,
2013-01-12 04:34:00,38.8,36.9,30.08,West,279,1.2,2.3,93,0.00,CLR,,0.00,WeatherDisplay:10.37,2013-01-12 09:34:00,
2013-01-12 04:39:00,38.6,36.8,30.09,WSW,246,0.4,2.3,93,0.00,CLR,,0.00,WeatherDisplay:10.37,2013-01-12 09:39:00,
2013-01-12 04:44:00,38.6,36.8,30.09,WSW,243,0.8,2.0,93,0.00,CLR,,0.00,WeatherDisplay:10.37,2013-01-12 09:44:00,
2013-01-12 04:49:00,38.6,36.8,30.09,WSW,246,0.0,1.1,93,0.00,CLR,,0.00,WeatherDisplay:10.37,2013-01-12 09:49:00,
2013-01-12 04:54:00,38.6,36.8,30.08,NNE,28,2.5,3.5,93,0.00,CLR,,0.00,WeatherDisplay:10.37,2013-01-12 09:54:00,
2013-01-12 04:59:00,38.4,36.6,30.08,NE,43,1.6,3.5,93,0.00,CLR,,0.00,WeatherDisplay:10.37,2013-01-12 09:59:00,
2013-01-12 05:04:00,38.4,36.6,30.08,North,355,0.4,1.1,93,0.00,CLR,,0.00,WeatherDisplay:10.37,2013-01-12 10:04:00,
2013-01-12 05:09:00,38.3,36.5,30.09,North,351,0.0,1.1,93,0.00,CLR,,0.00,WeatherDisplay:10.37,2013-01-12 10:09:00,
2013-01-12 05:14:00,38.3,36.2,30.10,NNW,348,0.6,2.3,92,0.00,CLR,,0.00,WeatherDisplay:10.37,2013-01-12 10:14:00,
2013-01-12 05:19:00,38.3,36.2,30.10,NNW,348,0.0,0.0,92,0.00,CLR,,0.00,WeatherDisplay:10.37,2013-01-12 10:19:00,
2013-01-12 05:24:00,38.3,36.2,30.10,NNW,343,1.9,3.5,92,0.00,CLR,,0.00,WeatherDisplay:10.37,2013-01-12 10:24:00,
2013-01-12 05:29:00,38.2,36.1,30.10,NNW,344,1.5,2.3,92,0.00,CLR,,0.00,WeatherDisplay:10.37,2013-01-12 10:29:00,
2013-01-12 05:34:00,38.2,36.1,30.09,NNW,344,0.0,0.0,92,0.00,CLR,,0.00,WeatherDisplay:10.37,2013-01-12 10:34:00,
2013-01-12 05:39:00,38.2,36.1,30.09,North,360,0.3,1.1,92,0.00,CLR,,0.00,WeatherDisplay:10.37,2013-01-12 10:39:00,
2013-01-12 05:44:00,38.1,36.3,30.09,North,11,0.9,1.1,93,0.00,CLR,,0.00,WeatherDisplay:10.37,2013-01-12 10:44:00,
2013-01-12 05:49:00,38.0,36.2,30.09,North,11,0.2,1.1,93,0.00,CLR,,0.00,WeatherDisplay:10.37,2013-01-12 10:49:00,
2013-01-12 05:54:00,38.0,36.2,30.09,North,11,0.0,0.0,93,0.00,CLR,,0.00,WeatherDisplay:10.37,2013-01-12 10:54:00,
2013-01-12 05:59:00,37.9,36.1,30.09,North,11,0.1,1.1,93,0.00,CLR,,0.00,WeatherDisplay:10.37,2013-01-12 10:59:00,
2013-01-12 06:04:00,37.7,35.9,30.09,North,11,0.1,1.0,93,0.00,CLR,,0.00,WeatherDisplay:10.37,2013-01-12 11:04:00,
2013-01-12 06:09:00,37.3,35.5,30.10,WNW,290,2.2,3.5,93,0.00,CLR,,0.00,WeatherDisplay:10.37,2013-01-12 11:09:00,
2013-01-12 06:14:00,37.0,35.2,30.10,West,275,2.1,3.5,93,0.00,CLR,,0.00,WeatherDisplay:10.37,2013-01-12 11:14:00,
2013-01-12 06:19:00,37.1,35.3,30.10,WNW,295,1.3,2.3,93,0.00,CLR,,0.00,WeatherDisplay:10.37,2013-01-12 11:19:00,
2013-01-12 06:24:00,37.1,35.0,30.10,WNW,295,0.2,1.1,92,0.00,CLR,,0.00,WeatherDisplay:10.37,2013-01-12 11:24:00,
2013-01-12 06:29:00,37.1,35.0,30.10,WNW,295,1.4,2.3,92,0.00,CLR,,0.00,WeatherDisplay:10.37,2013-01-12 11:29:00,
2013-01-12 06:34:00,37.1,35.0,30.10,WNW,295,0.1,1.1,92,0.00,CLR,,0.00,WeatherDisplay:10.37,2013-01-12 11:34:00,
2013-01-12 06:39:00,37.1,35.0,30.10,NNW,340,1.2,3.5,92,0.00,CLR,,0.00,WeatherDisplay:10.37,2013-01-12 11:39:00,
2013-01-12 06:44:00,37.3,35.2,30.10,NNE,32,2.8,3.5,92,0.00,CLR,,0.00,WeatherDisplay:10.37,2013-01-12 11:44:00,
2013-01-12 06:49:00,37.7,35.6,30.10,NNE,32,2.1,5.8,92,0.00,CLR,,0.00,WeatherDisplay:10.37,2013-01-12 11:49:00,
2013-01-12 06:54:00,38.0,35.9,30.11,North,351,1.5,2.3,92,0.00,CLR,,0.00,WeatherDisplay:10.37,2013-01-12 11:54:00,
2013-01-12 06:59:00,38.0,35.9,30.11,North,355,1.7,3.5,92,0.00,CLR,,0.00,WeatherDisplay:10.37,2013-01-12 11:59:00,
2013-01-12 07:04:00,38.0,35.9,30.11,North,350,1.9,3.5,92,0.00,CLR,,0.00,WeatherDisplay:10.37,2013-01-12 12:04:00,
2013-01-12 07:09:00,38.0,35.9,30.12,NW,317,2.6,3.5,92,0.00,CLR,,0.00,WeatherDisplay:10.37,2013-01-12 12:09:00,
2013-01-12 07:14:00,38.0,35.9,30.12,NW,311,2.0,3.5,92,0.00,CLR,,0.00,WeatherDisplay:10.37,2013-01-12 12:14:00,
2013-01-12 07:19:00,38.0,35.9,30.12,NW,310,1.8,3.5,92,0.00,CLR,,0.00,WeatherDisplay:10.37,2013-01-12 12:19:00,
2013-01-12 07:24:00,38.0,35.9,30.13,NW,310,1.2,2.3,92,0.00,CLR,,0.00,WeatherDisplay:10.37,2013-01-12 12:24:00,
2013-01-12 07:29:00,38.0,35.9,30.13,WNW,302,0.3,2.3,92,0.00,CLR,,0.00,WeatherDisplay:10.37,2013-01-12 12:29:00,
2013-01-12 07:34:00,38.0,35.9,30.13,WNW,302,1.1,2.3,92,0.00,CLR,,0.00,WeatherDisplay:10.37,2013-01-12 12:34:00,
2013-01-12 07:39:00,38.1,36.0,30.14,WNW,302,0.0,0.0,92,0.00,CLR,,0.00,WeatherDisplay:10.37,2013-01-12 12:39:00,
2013-01-12 07:44:00,38.1,36.0,30.13,WNW,302,0.0,1.1,92,0.00,CLR,,0.00,WeatherDisplay:10.37,2013-01-12 12:44:00,
2013-01-12 07:49:00,38.0,35.9,30.14,WNW,302,1.6,2.3,92,0.00,CLR,,0.00,WeatherDisplay:10.37,2013-01-12 12:49:00,
2013-01-12 07:54:00,38.1,36.0,30.14,WNW,302,1.0,1.1,92,0.00,CLR,,0.00,WeatherDisplay:10.37,2013-01-12 12:54:00,
2013-01-12 07:59:00,38.2,36.1,30.14,West,263,2.8,5.0,92,0.00,CLR,,0.00,WeatherDisplay:10.37,2013-01-12 12:59:00,
2013-01-12 08:04:00,38.3,36.2,30.14,WSW,254,1.1,3.5,92,0.00,CLR,,0.00,WeatherDisplay:10.37,2013-01-12 13:04:00,
2013-01-12 08:09:00,38.4,36.3,30.14,WSW,254,0.1,0.0,92,0.00,CLR,,0.00,WeatherDisplay:10.37,2013-01-12 13:09:00,
2013-01-12 08:14:00,38.4,36.3,30.14,WSW,254,0.0,0.0,92,0.00,CLR,,0.00,WeatherDisplay:10.37,2013-01-12 13:14:00,
2013-01-12 08:19:00,38.6,36.5,30.14,WSW,254,0.0,0.0,92,0.00,CLR,,0.00,WeatherDisplay:10.37,2013-01-12 13:19:00,
2013-01-12 08:24:00,38.7,36.6,30.14,WSW,254,0.0,0.0,92,0.00,CLR,,0.00,WeatherDisplay:10.37,2013-01-12 13:24:00,
2013-01-12 08:29:00,38.8,36.7,30.14,WSW,254,0.0,0.0,92,0.00,CLR,,0.00,WeatherDisplay:10.37,2013-01-12 13:29:00,
2013-01-12 08:35:00,38.9,36.8,30.15,WSW,254,0.7,2.3,92,0.00,CLR,,0.00,WeatherDisplay:10.37,2013-01-12 13:35:00,
2013-01-12 08:40:00,39.1,37.0,30.15,WSW,254,0.5,2.3,92,0.00,CLR,,0.00,WeatherDisplay:10.37,2013-01-12 13:40:00,
2013-01-12 08:45:00,39.2,37.1,30.15,WSW,254,0.5,1.1,92,0.00,CLR,,0.00,WeatherDisplay:10.37,2013-01-12 13:45:00,
2013-01-12 08:50:00,39.3,37.2,30.16,WSW,254,0.7,2.3,92,0.00,CLR,,0.00,WeatherDisplay:10.37,2013-01-12 13:50:00,
2013-01-12 08:55:00,39.3,37.2,30.15,WSW,248,1.5,3.5,92,0.00,CLR,,0.00,WeatherDisplay:10.37,2013-01-12 13:55:00,
2013-01-12 09:00:00,39.5,37.4,30.16,WSW,251,2.2,3.5,92,0.00,CLR,,0.00,WeatherDisplay:10.37,2013-01-12 14:00:00,
2013-01-12 09:05:00,39.6,37.5,30.16,West,263,0.3,1.1,92,0.00,CLR,,0.00,WeatherDisplay:10.37,2013-01-12 14:05:00,
2013-01-12 09:10:00,39.6,37.5,30.16,West,277,1.2,3.5,92,0.00,CLR,,0.00,WeatherDisplay:10.37,2013-01-12 14:10:00,
2013-01-12 09:15:00,39.7,37.6,30.16,WSW,250,1.3,3.5,92,0.00,CLR,,0.00,WeatherDisplay:10.37,2013-01-12 14:15:00,
2013-01-12 09:20:00,39.9,37.8,30.16,SW,232,1.2,3.5,92,0.00,CLR,,0.00,WeatherDisplay:10.37,2013-01-12 14:20:00,
2013-01-12 09:25:00,40.0,37.9,30.16,WSW,254,1.7,3.5,92,0.00,CLR,,0.00,WeatherDisplay:10.37,2013-01-12 14:25:00,
2013-01-12 09:30:00,40.2,38.1,30.16,WSW,254,0.2,1.0,92,0.00,CLR,,0.00,WeatherDisplay:10.37,2013-01-12 14:30:00,
2013-01-12 09:35:00,40.2,38.1,30.16,WSW,238,1.0,2.3,92,0.00,CLR,,0.00,WeatherDisplay:10.37,2013-01-12 14:35:00,
2013-01-12 09:40:00,40.2,38.1,30.16,WSW,238,0.6,2.3,92,0.00,CLR,,0.00,WeatherDisplay:10.37,2013-01-12 14:40:00,
2013-01-12 09:45:00,40.4,38.3,30.16,SW,234,1.3,3.5,92,0.00,CLR,,0.00,WeatherDisplay:10.37,2013-01-12 14:45:00,
2013-01-12 09:50:00,40.5,38.4,30.16,WSW,250,1.9,2.3,92,0.00,CLR,,0.00,WeatherDisplay:10.37,2013-01-12 14:50:00,
2013-01-12 09:55:00,40.5,38.4,30.16,WSW,248,1.3,2.3,92,0.00,CLR,,0.00,WeatherDisplay:10.37,2013-01-12 14:55:00,
2013-01-12 10:00:00,40.6,38.5,30.15,WSW,248,0.3,2.0,92,0.00,CLR,,0.00,WeatherDisplay:10.37,2013-01-12 15:00:00,
2013-01-12 10:05:00,40.5,38.4,30.15,WSW,248,0.1,1.1,92,0.00,CLR,,0.00,WeatherDisplay:10.37,2013-01-12 15:05:00,
2013-01-12 10:10:00,40.6,38.5,30.16,WSW,248,0.6,2.3,92,0.00,CLR,,0.00,WeatherDisplay:10.37,2013-01-12 15:10:00,
2013-01-12 10:15:00,40.6,38.5,30.16,WSW,248,1.3,2.3,92,0.00,CLR,,0.00,WeatherDisplay:10.37,2013-01-12 15:15:00,
2013-01-12 10:20:00,40.8,38.7,30.16,WSW,248,0.0,1.0,92,0.00,CLR,,0.00,WeatherDisplay:10.37,2013-01-12 15:20:00,
2013-01-12 10:25:00,41.0,38.9,30.15,WSW,248,1.0,2.0,92,0.00,CLR,,0.00,WeatherDisplay:10.37,2013-01-12 15:25:00,
2013-01-12 10:30:00,41.3,39.2,30.15,WNW,303,0.5,2.3,92,0.00,CLR,,0.00,WeatherDisplay:10.37,2013-01-12 15:30:00,
2013-01-12 10:35:00,41.6,39.4,30.15,NW,323,2.0,4.0,92,0.00,CLR,,0.00,WeatherDisplay:10.37,2013-01-12 15:35:00,
2013-01-12 10:40:00,41.8,39.6,30.15,NNW,347,2.0,4.0,92,0.00,CLR,,0.00,WeatherDisplay:10.37,2013-01-12 15:40:00,
2013-01-12 10:45:00,41.9,39.8,30.14,North,350,3.0,5.0,92,0.00,CLR,,0.00,WeatherDisplay:10.37,2013-01-12 15:45:00,
2013-01-12 10:50:00,42.0,39.8,30.14,NNW,348,2.1,3.5,92,0.00,CLR,,0.00,WeatherDisplay:10.37,2013-01-12 15:50:00,
2013-01-12 10:55:00,42.0,39.8,30.14,NNW,336,1.7,3.5,92,0.00,CLR,,0.00,WeatherDisplay:10.37,2013-01-12 15:55:00,
2013-01-12 11:00:00,42.1,39.9,30.14,NNW,340,1.2,3.5,92,0.00,CLR,,0.00,WeatherDisplay:10.37,2013-01-12 16:00:00,
2013-01-12 11:05:00,42.2,40.0,30.14,NNW,340,0.1,2.3,92,0.00,CLR,,0.00,WeatherDisplay:10.37,2013-01-12 16:05:00,
2013-01-12 11:10:00,42.1,39.9,30.14,WNW,303,3.1,4.6,92,0.00,CLR,,0.00,WeatherDisplay:10.37,2013-01-12 16:10:00,
2013-01-12 11:15:00,42.2,40.3,30.14,NW,312,1.0,3.0,93,0.00,CLR,,0.00,WeatherDisplay:10.37,2013-01-12 16:15:00,
2013-01-12 11:20:00,42.4,40.5,30.14,WNW,294,3.0,4.0,93,0.00,CLR,,0.00,WeatherDisplay:10.37,2013-01-12 16:20:00,
2013-01-12 11:25:00,42.3,40.5,30.14,West,263,1.0,4.0,93,0.00,CLR,,0.00,WeatherDisplay:10.37,2013-01-12 16:25:00,
2013-01-12 11:30:00,42.4,40.5,30.14,WSW,252,0.0,2.0,93,0.00,CLR,,0.00,WeatherDisplay:10.37,2013-01-12 16:30:00,
2013-01-12 11:35:00,42.7,40.6,30.14,WSW,251,1.0,2.0,92,0.00,CLR,,0.00,WeatherDisplay:10.37,2013-01-12 16:35:00,
2013-01-12 11:40:00,42.9,41.0,30.14,West,260,3.0,4.0,93,0.00,CLR,,0.00,WeatherDisplay:10.37,2013-01-12 16:40:00,
2013-01-12 11:45:00,43.0,41.1,30.14,West,272,2.0,5.0,93,0.00,CLR,,0.00,WeatherDisplay:10.37,2013-01-12 16:45:00,
2013-01-12 11:50:00,43.1,41.2,30.14,West,271,2.0,5.0,93,0.00,CLR,,0.00,WeatherDisplay:10.37,2013-01-12 16:50:00,
2013-01-12 11:55:00,43.2,41.3,30.14,WSW,250,4.6,5.8,93,0.00,CLR,,0.00,WeatherDisplay:10.37,2013-01-12 16:55:00,
2013-01-12 12:00:00,43.3,41.4,30.13,WSW,252,1.1,2.3,93,0.00,CLR,,0.00,WeatherDisplay:10.37,2013-01-12 17:00:00,
2013-01-12 12:05:00,43.5,41.6,30.14,West,265,2.8,4.6,93,0.00,CLR,,0.00,WeatherDisplay:10.37,2013-01-12 17:05:00,
2013-01-12 12:10:00,43.6,41.7,30.14,West,259,5.0,7.0,93,0.00,CLR,,0.00,WeatherDisplay:10.37,2013-01-12 17:10:00,
2013-01-12 12:15:00,43.5,41.6,30.13,SW,236,3.3,3.5,93,0.00,CLR,,0.00,WeatherDisplay:10.37,2013-01-12 17:15:00,
2013-01-12 12:20:00,43.5,41.6,30.13,WSW,250,1.0,3.0,93,0.00,CLR,,0.00,WeatherDisplay:10.37,2013-01-12 17:20:00,
2013-01-12 12:25:00,43.7,41.8,30.13,WSW,244,0.0,3.0,93,0.00,CLR,,0.00,WeatherDisplay:10.37,2013-01-12 17:25:00,
2013-01-12 12:30:00,43.6,41.7,30.13,West,264,2.0,4.0,93,0.00,CLR,,0.00,WeatherDisplay:10.37,2013-01-12 17:30:00,
2013-01-12 12:35:00,43.6,41.7,30.13,West,264,2.0,4.0,93,0.00,CLR,,0.00,WeatherDisplay:10.37,2013-01-12 17:35:00,
2013-01-12 12:40:00,43.6,41.7,30.12,WSW,253,1.0,3.0,93,0.00,CLR,,0.00,WeatherDisplay:10.37,2013-01-12 17:40:00,
2013-01-12 12:45:00,43.8,41.9,30.12,West,266,1.0,2.0,93,0.00,CLR,,0.00,WeatherDisplay:10.37,2013-01-12 17:45:00,
2013-01-12 12:50:00,43.9,42.3,30.12,NNW,333,0.0,2.3,94,0.00,CLR,,0.00,WeatherDisplay:10.37,2013-01-12 17:50:00,
2013-01-12 12:55:00,44.1,42.2,30.12,NE,50,1.3,2.3,93,0.00,CLR,,0.00,WeatherDisplay:10.37,2013-01-12 17:55:00,
2013-01-12 13:00:00,44.3,42.4,30.12,North,355,1.4,2.3,93,0.00,CLR,,0.00,WeatherDisplay:10.37,2013-01-12 18:00:00,
2013-01-12 13:05:00,44.6,42.7,30.13,NNW,345,2.2,2.3,93,0.00,CLR,,0.00,WeatherDisplay:10.37,2013-01-12 18:05:00,
2013-01-12 13:10:00,44.8,42.9,30.13,NNW,339,1.0,4.0,93,0.00,CLR,,0.00,WeatherDisplay:10.37,2013-01-12 18:10:00,
2013-01-12 13:15:00,44.9,43.0,30.14,NW,321,2.0,5.0,93,0.00,CLR,,0.00,WeatherDisplay:10.37,2013-01-12 18:15:00,
2013-01-12 13:20:00,44.9,43.0,30.13,NW,313,0.0,1.0,93,0.00,CLR,,0.00,WeatherDisplay:10.37,2013-01-12 18:20:00,
2013-01-12 13:25:00,44.8,42.9,30.13,NW,312,0.0,1.0,93,0.00,CLR,,0.00,WeatherDisplay:10.37,2013-01-12 18:25:00,
2013-01-12 13:30:00,44.8,42.9,30.13,NNW,331,2.0,4.0,93,0.00,CLR,,0.00,WeatherDisplay:10.37,2013-01-12 18:30:00,
2013-01-12 13:35:00,45.0,43.1,30.13,North,358,2.0,3.0,93,0.00,CLR,,0.00,WeatherDisplay:10.37,2013-01-12 18:35:00,
2013-01-12 13:40:00,45.1,43.2,30.12,NNE,18,2.0,5.0,93,0.00,CLR,,0.00,WeatherDisplay:10.37,2013-01-12 18:40:00,
2013-01-12 13:45:00,45.1,43.2,30.12,NNE,27,1.0,3.0,93,0.00,CLR,,0.00,WeatherDisplay:10.37,2013-01-12 18:45:00,
2013-01-12 13:50:00,45.0,42.8,30.12,NE,41,2.7,3.5,92,0.00,CLR,,0.00,WeatherDisplay:10.37,2013-01-12 18:50:00,
2013-01-12 13:55:00,44.9,43.0,30.12,NE,35,2.8,3.5,93,0.00,CLR,,0.00,WeatherDisplay:10.37,2013-01-12 18:55:00,
2013-01-12 14:00:00,44.9,43.0,30.13,NNE,13,2.9,3.5,93,0.00,CLR,,0.00,WeatherDisplay:10.37,2013-01-12 19:00:00,
2013-01-12 14:05:00,44.8,42.9,30.12,NNE,18,1.7,3.5,93,0.00,CLR,,0.00,WeatherDisplay:10.37,2013-01-12 19:05:00,
2013-01-12 14:10:00,44.8,42.9,30.13,NNE,20,1.7,2.3,93,0.00,CLR,,0.00,WeatherDisplay:10.37,2013-01-12 19:10:00,
2013-01-12 14:15:00,44.9,43.0,30.13,NNE,24,1.0,4.0,93,0.00,CLR,,0.00,WeatherDisplay:10.37,2013-01-12 19:15:00,
2013-01-12 14:20:00,44.9,43.0,30.12,NE,53,1.8,3.5,93,0.00,CLR,,0.00,WeatherDisplay:10.37,2013-01-12 19:20:00,
2013-01-12 14:25:00,44.9,43.0,30.11,NE,54,1.0,3.0,93,0.00,CLR,,0.00,WeatherDisplay:10.37,2013-01-12 19:25:00,
2013-01-12 14:30:00,44.9,43.0,30.12,East,79,0.0,2.0,93,0.00,CLR,,0.00,WeatherDisplay:10.37,2013-01-12 19:30:00,
2013-01-12 14:35:00,44.9,43.0,30.11,East,79,1.0,3.0,93,0.00,CLR,,0.00,WeatherDisplay:10.37,2013-01-12 19:35:00,
2013-01-12 14:40:00,44.8,42.9,30.12,ESE,119,0.0,2.3,93,0.00,CLR,,0.00,WeatherDisplay:10.37,2013-01-12 19:40:00,
2013-01-12 14:45:00,44.7,42.8,30.12,ESE,102,1.0,3.0,93,0.00,CLR,,0.00,WeatherDisplay:10.37,2013-01-12 19:45:00,
2013-01-12 14:50:00,44.9,43.0,30.12,NNE,22,1.0,3.0,93,0.00,CLR,,0.00,WeatherDisplay:10.37,2013-01-12 19:50:00,
2013-01-12 14:55:00,44.8,42.9,30.12,NNE,29,2.4,3.5,93,0.00,CLR,,0.00,WeatherDisplay:10.37,2013-01-12 19:55:00,
2013-01-12 15:00:00,44.8,42.9,30.12,NNW,346,2.6,3.5,93,0.00,CLR,,0.00,WeatherDisplay:10.37,2013-01-12 20:00:00,
2013-01-12 15:05:00,44.8,42.9,30.12,NNW,348,1.3,3.5,93,0.00,CLR,,0.00,WeatherDisplay:10.37,2013-01-12 20:05:00,
2013-01-12 15:10:00,44.9,43.0,30.12,North,350,2.0,3.5,93,0.00,CLR,,0.00,WeatherDisplay:10.37,2013-01-12 20:10:00,
2013-01-12 15:15:00,44.9,43.0,30.12,North,357,1.0,3.0,93,0.00,CLR,,0.00,WeatherDisplay:10.37,2013-01-12 20:15:00,
2013-01-12 15:20:00,44.9,43.0,30.13,North,360,1.0,2.0,93,0.00,CLR,,0.00,WeatherDisplay:10.37,2013-01-12 20:20:00,
2013-01-12 15:25:00,44.9,43.0,30.12,North,360,1.0,2.0,93,0.00,CLR,,0.00,WeatherDisplay:10.37,2013-01-12 20:25:00,
2013-01-12 15:30:00,44.8,42.9,30.12,North,360,0.0,3.0,93,0.00,CLR,,0.00,WeatherDisplay:10.37,2013-01-12 20:30:00,
2013-01-12 15:35:00,44.7,42.8,30.12,NNW,341,0.0,3.0,93,0.00,CLR,,0.00,WeatherDisplay:10.37,2013-01-12 20:35:00,
2013-01-12 15:40:00,44.7,42.8,30.13,North,355,1.7,3.5,93,0.00,CLR,,0.00,WeatherDisplay:10.37,2013-01-12 20:40:00,
2013-01-12 15:45:00,44.7,42.8,30.13,North,355,0.0,0.0,93,0.00,CLR,,0.00,WeatherDisplay:10.37,2013-01-12 20:45:00,
2013-01-12 15:50:00,44.7,42.8,30.13,North,355,0.5,2.3,93,0.00,CLR,,0.00,WeatherDisplay:10.37,2013-01-12 20:50:00,
2013-01-12 15:55:00,44.8,42.9,30.12,North,355,0.3,0.0,93,0.00,CLR,,0.00,WeatherDisplay:10.37,2013-01-12 20:55:00,
2013-01-12 16:00:00,44.8,42.9,30.13,North,355,0.2,1.1,93,0.00,CLR,,0.00,WeatherDisplay:10.37,2013-01-12 21:00:00,
2013-01-12 16:05:00,44.9,43.0,30.13,North,355,0.0,0.0,93,0.00,CLR,,0.00,WeatherDisplay:10.37,2013-01-12 21:05:00,
2013-01-12 16:10:00,45.0,43.1,30.13,North,355,0.8,1.1,93,0.00,CLR,,0.00,WeatherDisplay:10.37,2013-01-12 21:10:00,
2013-01-12 16:15:00,45.1,43.2,30.13,North,355,0.0,0.0,93,0.00,CLR,,0.00,WeatherDisplay:10.37,2013-01-12 21:15:00,
2013-01-12 16:20:00,44.9,42.7,30.13,North,355,0.8,2.0,92,0.00,CLR,,0.00,WeatherDisplay:10.37,2013-01-12 21:20:00,
2013-01-12 16:25:00,44.6,42.4,30.12,NW,315,0.8,2.3,92,0.00,CLR,,0.00,WeatherDisplay:10.37,2013-01-12 21:25:00,
2013-01-12 16:30:00,44.5,42.3,30.13,NW,315,1.8,3.5,92,0.00,CLR,,0.00,WeatherDisplay:10.37,2013-01-12 21:30:00,
2013-01-12 16:35:00,44.2,42.3,30.13,WNW,287,1.0,2.3,93,0.00,CLR,,0.00,WeatherDisplay:10.37,2013-01-12 21:35:00,
2013-01-12 16:40:00,44.0,42.1,30.13,NW,304,2.7,3.5,93,0.00,CLR,,0.00,WeatherDisplay:10.37,2013-01-12 21:40:00,
2013-01-12 16:45:00,43.8,41.9,30.14,NW,305,1.4,2.3,93,0.00,CLR,,0.00,WeatherDisplay:10.37,2013-01-12 21:45:00,
2013-01-12 16:50:00,43.7,41.8,30.14,NW,305,1.3,2.3,93,0.00,CLR,,0.00,WeatherDisplay:10.37,2013-01-12 21:50:00,
2013-01-12 16:55:00,43.6,41.7,30.14,NW,306,2.0,3.5,93,0.00,CLR,,0.00,WeatherDisplay:10.37,2013-01-12 21:55:00,
2013-01-12 17:00:00,43.6,41.7,30.14,NW,306,0.7,2.3,93,0.00,CLR,,0.00,WeatherDisplay:10.37,2013-01-12 22:00:00,
2013-01-12 17:05:00,43.5,41.6,30.14,NW,306,0.0,0.0,93,0.00,CLR,,0.00,WeatherDisplay:10.37,2013-01-12 22:05:00,
2013-01-12 17:10:00,43.4,41.5,30.14,NW,306,0.0,0.0,93,0.00,CLR,,0.00,WeatherDisplay:10.37,2013-01-12 22:10:00,
2013-01-12 17:15:00,43.3,41.4,30.15,NW,306,0.0,0.0,93,0.00,CLR,,0.00,WeatherDisplay:10.37,2013-01-12 22:15:00,
2013-01-12 17:20:00,43.2,41.3,30.14,NW,306,0.0,0.0,93,0.00,CLR,,0.00,WeatherDisplay:10.37,2013-01-12 22:20:00,
2013-01-12 17:25:00,43.1,41.2,30.15,NW,306,0.0,0.0,93,0.00,CLR,,0.00,WeatherDisplay:10.37,2013-01-12 22:25:00,
2013-01-12 17:30:00,43.0,41.1,30.15,NW,306,0.0,0.0,93,0.00,CLR,,0.00,WeatherDisplay:10.37,2013-01-12 22:30:00,
2013-01-12 17:35:00,42.8,40.9,30.15,NW,306,0.0,0.0,93,0.00,CLR,,0.00,WeatherDisplay:10.37,2013-01-12 22:35:00,
2013-01-12 17:40:00,42.7,40.8,30.14,NW,306,0.0,0.0,93,0.00,CLR,,0.00,WeatherDisplay:10.37,2013-01-12 22:40:00,
2013-01-12 17:45:00,42.4,40.5,30.15,NW,306,1.9,2.3,93,0.00,CLR,,0.00,WeatherDisplay:10.37,2013-01-12 22:45:00,
2013-01-12 17:50:00,42.1,40.2,30.14,NW,306,0.0,0.0,93,0.00,CLR,,0.00,WeatherDisplay:10.37,2013-01-12 22:50:00,
2013-01-12 17:55:00,42.0,40.1,30.14,NW,306,1.4,2.3,93,0.00,CLR,,0.00,WeatherDisplay:10.37,2013-01-12 22:55:00,
2013-01-12 18:00:00,41.7,39.8,30.14,NW,306,0.2,1.1,93,0.00,CLR,,0.00,WeatherDisplay:10.37,2013-01-12 23:00:00,
2013-01-12 18:05:00,41.4,39.8,30.14,NW,306,0.6,1.0,94,0.00,CLR,,0.00,WeatherDisplay:10.37,2013-01-12 23:05:00,
2013-01-12 18:10:00,41.1,39.2,30.14,NW,306,1.0,2.3,93,0.00,CLR,,0.00,WeatherDisplay:10.37,2013-01-12 23:10:00,
2013-01-12 18:15:00,40.9,39.0,30.14,NW,306,0.1,1.1,93,0.00,CLR,,0.00,WeatherDisplay:10.37,2013-01-12 23:15:00,
2013-01-12 18:20:00,40.7,39.1,30.14,NW,306,0.0,0.0,94,0.00,CLR,,0.00,WeatherDisplay:10.37,2013-01-12 23:20:00,
2013-01-12 18:25:00,40.7,39.1,30.14,NW,306,0.9,1.1,94,0.00,CLR,,0.00,WeatherDisplay:10.37,2013-01-12 23:25:00,
2013-01-12 18:30:00,40.6,38.7,30.15,NW,306,0.5,1.1,93,0.00,CLR,,0.00,WeatherDisplay:10.37,2013-01-12 23:30:00,
2013-01-12 18:35:00,40.6,38.7,30.15,NW,306,1.8,2.3,93,0.00,CLR,,0.00,WeatherDisplay:10.37,2013-01-12 23:35:00,
2013-01-12 18:40:00,40.8,38.9,30.15,NW,306,1.2,2.3,93,0.00,CLR,,0.00,WeatherDisplay:10.37,2013-01-12 23:40:00,
2013-01-12 18:45:00,41.0,39.1,30.14,NW,306,0.0,0.0,93,0.00,CLR,,0.00,WeatherDisplay:10.37,2013-01-12 23:45:00,
2013-01-12 18:50:00,41.1,39.2,30.14,NW,306,0.0,0.0,93,0.00,CLR,,0.00,WeatherDisplay:10.37,2013-01-12 23:50:00,
2013-01-12 18:55:00,41.2,39.1,30.15,NW,306,0.0,0.0,92,0.00,CLR,,0.00,WeatherDisplay:10.37,2013-01-12 23:55:00,
2013-01-12 19:00:00,41.3,39.2,30.15,NW,306,0.0,0.0,92,0.00,CLR,,0.00,WeatherDisplay:10.37,2013-01-13 00:00:00,
2013-01-12 19:05:00,41.2,39.3,30.15,NW,306,0.0,0.0,93,0.00,CLR,,0.00,WeatherDisplay:10.37,2013-01-13 00:05:00,
2013-01-12 19:10:00,41.2,39.3,30.15,NW,306,0.0,0.0,93,0.00,CLR,,0.00,WeatherDisplay:10.37,2013-01-13 00:10:00,
2013-01-12 19:15:00,41.1,39.2,30.15,NW,306,0.0,0.0,93,0.00,CLR,,0.00,WeatherDisplay:10.37,2013-01-13 00:15:00,
2013-01-12 19:20:00,41.2,39.3,30.15,NW,306,0.0,0.0,93,0.00,CLR,,0.00,WeatherDisplay:10.37,2013-01-13 00:20:00,
2013-01-12 19:25:00,41.3,39.4,30.15,NW,306,0.0,0.0,93,0.00,CLR,,0.00,WeatherDisplay:10.37,2013-01-13 00:25:00,
2013-01-12 19:30:00,41.3,39.4,30.15,NW,306,0.0,0.0,93,0.00,CLR,,0.00,WeatherDisplay:10.37,2013-01-13 00:30:00,
2013-01-12 19:35:00,41.3,39.4,30.15,NW,306,0.0,0.0,93,0.00,CLR,,0.00,WeatherDisplay:10.37,2013-01-13 00:35:00,
2013-01-12 19:40:00,41.3,39.4,30.15,NW,306,0.0,0.0,93,0.00,CLR,,0.00,WeatherDisplay:10.37,2013-01-13 00:40:00,
2013-01-12 19:45:00,41.3,39.2,30.15,NW,306,0.0,0.0,92,0.00,CLR,,0.00,WeatherDisplay:10.37,2013-01-13 00:45:00,
2013-01-12 19:50:00,41.4,39.3,30.15,NW,306,0.0,0.0,92,0.00,CLR,,0.00,WeatherDisplay:10.37,2013-01-13 00:50:00,
2013-01-12 19:55:00,41.5,39.3,30.14,NW,306,0.7,1.1,92,0.00,CLR,,0.00,WeatherDisplay:10.37,2013-01-13 00:55:00,
2013-01-12 20:00:00,41.5,39.3,30.14,NW,306,0.9,2.3,92,0.00,CLR,,0.00,WeatherDisplay:10.37,2013-01-13 01:00:00,
2013-01-12 20:05:00,41.4,39.3,30.14,NW,306,0.5,1.1,92,0.00,CLR,,0.00,WeatherDisplay:10.37,2013-01-13 01:05:00,
2013-01-12 20:10:00,41.4,39.3,30.14,NW,306,0.0,0.0,92,0.00,CLR,,0.00,WeatherDisplay:10.37,2013-01-13 01:10:00,
2013-01-12 20:15:00,41.4,39.3,30.14,NW,306,0.5,1.1,92,0.00,CLR,,0.00,WeatherDisplay:10.37,2013-01-13 01:15:00,
2013-01-12 20:20:00,41.5,39.3,30.14,NW,306,0.0,1.1,92,0.00,CLR,,0.00,WeatherDisplay:10.37,2013-01-13 01:20:00,
2013-01-12 20:25:00,41.5,39.3,30.14,NW,306,0.2,1.1,92,0.00,CLR,,0.00,WeatherDisplay:10.37,2013-01-13 01:25:00,
2013-01-12 20:30:00,41.6,39.4,30.14,NW,306,1.0,1.1,92,0.00,CLR,,0.00,WeatherDisplay:10.37,2013-01-13 01:30:00,
2013-01-12 20:35:00,41.7,39.5,30.13,NW,306,0.0,0.0,92,0.00,CLR,,0.00,WeatherDisplay:10.37,2013-01-13 01:35:00,
2013-01-12 20:40:00,41.8,39.6,30.13,NW,306,0.8,2.3,92,0.00,CLR,,0.00,WeatherDisplay:10.37,2013-01-13 01:40:00,
2013-01-12 20:45:00,41.9,39.7,30.13,NW,306,0.0,0.0,92,0.00,CLR,,0.00,WeatherDisplay:10.37,2013-01-13 01:45:00,
2013-01-12 20:50:00,42.0,39.8,30.12,NW,306,0.0,0.0,92,0.00,CLR,,0.00,WeatherDisplay:10.37,2013-01-13 01:50:00,
2013-01-12 20:55:00,42.1,39.9,30.12,NW,306,0.0,0.0,92,0.00,CLR,,0.00,WeatherDisplay:10.37,2013-01-13 01:55:00,
2013-01-12 21:00:00,42.2,40.0,30.11,NW,306,0.1,2.3,92,0.00,CLR,,0.00,WeatherDisplay:10.37,2013-01-13 02:00:00,
2013-01-12 21:05:00,42.2,40.0,30.12,NW,306,0.0,0.0,92,0.00,CLR,,0.00,WeatherDisplay:10.37,2013-01-13 02:05:00,
2013-01-12 21:10:00,42.2,40.0,30.11,NW,306,0.0,0.0,92,0.00,CLR,,0.00,WeatherDisplay:10.37,2013-01-13 02:10:00,
2013-01-12 21:16:00,42.3,40.1,30.11,NW,306,0.0,0.0,92,0.00,CLR,,0.00,WeatherDisplay:10.37,2013-01-13 02:16:00,
2013-01-12 21:21:00,42.2,40.0,30.11,NW,306,0.0,0.0,92,0.00,CLR,,0.00,WeatherDisplay:10.37,2013-01-13 02:21:00,
2013-01-12 21:26:00,42.2,40.0,30.11,NW,306,0.6,2.3,92,0.00,CLR,,0.00,WeatherDisplay:10.37,2013-01-13 02:26:00,
2013-01-12 21:31:00,42.1,39.9,30.12,WNW,300,0.5,1.1,92,0.00,CLR,,0.00,WeatherDisplay:10.37,2013-01-13 02:31:00,
2013-01-12 21:36:00,42.1,39.9,30.12,WNW,300,0.0,0.0,92,0.00,CLR,,0.00,WeatherDisplay:10.37,2013-01-13 02:36:00,
2013-01-12 21:41:00,42.1,39.9,30.12,WNW,300,0.9,1.1,92,0.00,CLR,,0.00,WeatherDisplay:10.37,2013-01-13 02:41:00,
2013-01-12 21:46:00,42.3,40.1,30.13,WNW,300,0.1,1.1,92,0.00,CLR,,0.00,WeatherDisplay:10.37,2013-01-13 02:46:00,
2013-01-12 21:51:00,42.3,40.1,30.12,WNW,300,0.0,0.0,92,0.00,CLR,,0.00,WeatherDisplay:10.37,2013-01-13 02:51:00,
2013-01-12 21:56:00,42.3,40.1,30.12,WNW,300,0.0,0.0,92,0.00,CLR,,0.00,WeatherDisplay:10.37,2013-01-13 02:56:00,
2013-01-12 22:01:00,42.2,40.0,30.12,WNW,300,0.0,0.0,92,0.00,CLR,,0.00,WeatherDisplay:10.37,2013-01-13 03:01:00,
2013-01-12 22:06:00,42.2,40.0,30.12,WNW,300,0.0,0.0,92,0.00,CLR,,0.00,WeatherDisplay:10.37,2013-01-13 03:06:00,
2013-01-12 22:11:00,42.2,40.0,30.12,WNW,300,0.0,0.0,92,0.00,CLR,,0.00,WeatherDisplay:10.37,2013-01-13 03:11:00,
2013-01-12 22:16:00,42.2,40.0,30.12,WNW,300,0.0,0.0,92,0.00,CLR,,0.00,WeatherDisplay:10.37,2013-01-13 03:16:00,
2013-01-12 22:21:00,42.3,40.1,30.12,WNW,300,0.3,1.1,92,0.00,CLR,,0.00,WeatherDisplay:10.37,2013-01-13 03:21:00,
2013-01-12 22:26:00,42.3,40.1,30.12,WNW,300,0.1,0.0,92,0.00,CLR,,0.00,WeatherDisplay:10.37,2013-01-13 03:26:00,
2013-01-12 22:31:00,42.3,40.1,30.12,WNW,300,0.0,0.0,92,0.00,CLR,,0.00,WeatherDisplay:10.37,2013-01-13 03:31:00,
2013-01-12 22:36:00,42.3,40.1,30.12,WNW,300,0.1,1.1,92,0.00,CLR,,0.00,WeatherDisplay:10.37,2013-01-13 03:36:00,
2013-01-12 22:41:00,42.4,40.2,30.12,SW,230,1.2,1.2,92,0.00,CLR,,0.00,WeatherDisplay:10.37,2013-01-13 03:41:00,
2013-01-12 22:46:00,42.4,40.2,30.13,SW,224,0.0,1.1,92,0.00,CLR,,0.00,WeatherDisplay:10.37,2013-01-13 03:46:00,
2013-01-12 22:51:00,42.4,40.2,30.13,SW,224,0.0,0.0,92,0.00,CLR,,0.00,WeatherDisplay:10.37,2013-01-13 03:51:00,
2013-01-12 22:56:00,42.4,40.2,30.13,SW,224,0.3,1.1,92,0.00,CLR,,0.00,WeatherDisplay:10.37,2013-01-13 03:56:00,
2013-01-12 23:01:00,42.3,40.1,30.13,SW,224,0.0,0.0,92,0.00,CLR,,0.00,WeatherDisplay:10.37,2013-01-13 04:01:00,
2013-01-12 23:06:00,42.3,40.1,30.13,SW,224,0.0,0.0,92,0.00,CLR,,0.00,WeatherDisplay:10.37,2013-01-13 04:06:00,
2013-01-12 23:11:00,42.3,40.1,30.14,SW,224,0.0,0.0,92,0.00,CLR,,0.00,WeatherDisplay:10.37,2013-01-13 04:11:00,
2013-01-12 23:16:00,42.3,40.1,30.14,SW,224,0.0,0.0,92,0.00,CLR,,0.00,WeatherDisplay:10.37,2013-01-13 04:16:00,
2013-01-12 23:21:00,42.3,40.1,30.14,SW,224,0.0,0.0,92,0.00,CLR,,0.00,WeatherDisplay:10.37,2013-01-13 04:21:00,
2013-01-12 23:26:00,42.2,40.0,30.14,SW,224,0.0,0.0,92,0.00,CLR,,0.00,WeatherDisplay:10.37,2013-01-13 04:26:00,
2013-01-12 23:31:00,42.2,40.0,30.13,SW,224,0.0,0.0,92,0.00,CLR,,0.00,WeatherDisplay:10.37,2013-01-13 04:31:00,
2013-01-12 23:36:00,42.2,40.0,30.13,SW,224,0.0,0.0,92,0.00,CLR,,0.00,WeatherDisplay:10.37,2013-01-13 04:36:00,
2013-01-12 23:41:00,42.2,40.0,30.14,SW,224,0.0,0.0,92,0.00,CLR,,0.00,WeatherDisplay:10.37,2013-01-13 04:41:00,
2013-01-12 23:46:00,42.2,40.0,30.14,SW,224,0.0,0.0,92,0.00,CLR,,0.00,WeatherDisplay:10.37,2013-01-13 04:46:00,
2013-01-12 23:51:00,42.1,39.9,30.14,SW,224,0.9,1.1,92,0.00,CLR,,0.00,WeatherDisplay:10.37,2013-01-13 04:51:00,
2013-01-12 23:56:00,42.1,39.9,30.14,SW,224,0.8,2.3,92,0.00,CLR,,0.00,WeatherDisplay:10.37,2013-01-13 04:56:00,